Temp
12 12 12 12 12 13 13 13 13 13 13 14 14 14 14 15 15 15 15 15 16 16 16 16 16 16 16 17 17 17 17 17 20 20 19 19 18 18 17 16 15 15 14 15 15
11 12 12 12 12 13 13 13 13 13 14 14 14 14 14 14 15 15 15 15 16 16 16 16 15 16 16 17 18 17 16 17 19 19 19 19 18 18 17 14 14 14 15 15 15
12 12 12 12 12 13 13 13 13 13 14 14 14 15 15 15 15 15 15 16 16 16 16 16 16 15 16 18 18 17 15 18 19 18 19 19 19 19 18 16 15 14 16 15 15
11 12 12 12 12 12 13 13 13 14 14 14 14 15 15 15 14 15 15 16 16 16 16 16 16 16 17 18 18 17 18 19 18 18 18 19 18 19 18 17 16 14 16 16 15
11 12 12 12 12 12 13 13 13 13 14 14 14 14 15 15 14 15 15 16 16 16 16 14 15 16 17 18 18 18 19 18 18 18 18 18 18 18 18 17 16 15 15 15 15
11 12 12 12 12 12 13 13 13 13 14 14 14 14 14 14 14 15 16 16 16 16 14 15 16 16 17 17 18 18 18 18 18 19 19 18 18 18 18 17 16 15 13 13 12
11 11 12 12 12 12 13 13 13 13 14 14 14 14 14 13 14 15 15 16 16 16 14 14 15 15 17 17 17 17 18 18 19 19 19 18 18 17 18 17 16 15 14 13 12
10 11 11 12 12 12 13 13 13 13 13 14 14 14 13 14 14 15 15 15 16 16 16 16 16 16 16 17 17 18 18 19 20 19 19 19 18 18 18 17 17 16 15 14 13
10 10 11 11 12 12 12 13 13 13 13 13 14 14 13 14 15 15 15 14 15 15 16 16 16 16 17 17 18 19 19 20 19 19 19 19 19 19 18 17 17 15 15 14 13
10 10 11 11 12 12 12 12 13 13 13 13 14 14 14 14 14 14 15 14 14 15 15 16 16 16 17 18 19 20 20 21 19 20 19 19 19 19 18 18 17 16 14 13 12
9 10 10 11 11 12 12 12 12 12 13 14 12 14 13 13 14 14 15 14 14 14 15 15 16 17 19 19 19 18 19 20 20 20 19 18 19 19 19 18 18 16 15 13 12
9 10 10 11 11 11 11 11 11 12 13 14 13 13 13 13 13 14 14 14 14 15 15 16 17 18 18 18 18 18 19 19 20 19 18 18 19 19 19 18 18 17 16 13 12
9 10 10 10 11 10 11 11 12 12 12 14 13 13 13 14 13 14 14 14 15 15 16 17 18 17 17 17 18 18 19 19 19 19 19 19 19 19 19 18 17 17 15 14 13
9 9 10 10 10 10 10 11 11 11 11 14 14 13 13 13 14 15 14 14 15 16 16 17 17 17 17 17 18 18 19 18 18 18 19 20 20 20 19 18 17 16 16 14 13
8 9 9 9 10 9 10 11 11 11 14 16 14 14 14 14 15 15 14 14 15 16 16 17 17 17 17 17 18 18 18 18 18 18 19 20 20 19 19 19 17 17 15 15 13
8 8 9 9 9 9 10 10 10 10 14 15 14 14 14 14 15 15 14 14 15 16 16 17 17 17 17 17 17 17 17 17 18 18 19 19 20 20 19 18 17 17 15 14 13
8 8 9 9 9 10 10 10 9 12 15 16 15 15 15 15 15 15 14 14 15 15 16 16 17 17 17 17 17 17 17 18 19 20 20 18 17 19 19 18 17 17 15 14 12
7 8 8 8 9 9 9 8 10 13 14 16 16 15 15 16 15 15 15 15 15 16 17 17 18 17 17 17 18 17 17 18 18 19 18 17 18 18 19 17 16 16 15 13 12
7 8 8 8 8 8 8 8 11 13 15 16 15 16 16 16 16 16 15 15 16 16 17 18 18 18 18 17 17 17 17 18 18 19 19 20 19 18 17 17 16 16 15 14 12
6 7 7 8 8 8 8 9 11 13 13 14 15 15 16 16 16 16 16 16 16 16 16 17 18 18 17 17 17 17 17 18 18 18 18 20 16 13 14 13 16 16 15 14 13
6 6 6 7 7 7 8 9 11 12 12 13 14 15 16 17 17 16 16 16 16 17 17 16 17 18 17 16 17 17 17 17 17 18 18 19 15 17 16 11 16 16 15 14 13
5 5 5 6 7 7 7 9 11 12 11 11 12 13 14 16 16 16 17 16 16 17 17 16 16 17 17 17 17 17 18 17 18 18 18 18 18 17 16 16 16 16 15 14 13
5 5 5 6 6 7 8 9 10 11 11 11 12 12 13 13 14 15 16 15 15 16 16 16 16 16 16 17 17 17 17 17 17 17 17 16 15 14 15 16 16 16 15 14 12
4 5 5 6 7 7 8 10 11 10 10 11 12 12 12 12 13 13 15 14 14 14 15 15 15 16 17 17 16 16 17 17 17 17 17 18 17 14 15 14 15 15 15 13 12
4 5 6 6 6 6 7 9 10 10 9 10 11 11 11 12 12 12 14 14 13 13 13 14 14 14 15 16 16 17 17 17 17 17 17 17 16 14 14 15 10 13 14 13 13
1 3 4 5 5 7 7 8 9 10 10 9 9 11 11 12 12 13 13 13 13 13 13 13 13 13 14 15 16 17 17 17 17 17 17 17 17 16 14 12 12 12 14 13 13
3 3 2 4 5 6 7 7 8 8 10 10 10 10 11 11 11 11 11 12 11 12 13 13 13 13 13 15 15 16 16 17 17 17 17 17 17 14 13 10 10 13 13 13 13
Height
3174 3174 3175 3175 3176 3175 3176 3176 3177 3177 3177 3177 3178 3179 3178 3179 3179 3181 3181 3182 3182 3182 3183 3185 3186 3187 3187 3189 3191 3194 3193 3186 3186 3187 3191 3191 3190 3192 3195 3195 3197 3198 3196 3192 3191
3174 3174 3175 3176 3176 3177 3176 3177 3178 3178 3178 3178 3179 3180 3181 3180 3180 3181 3182 3181 3182 3182 3183 3185 3187 3188 3189 3192 3195 3191 3196 3191 3189 3191 3193 3192 3193 3194 3192 3195 3195 3198 3194 3193 3191
3173 3174 3175 3175 3176 3176 3177 3177 3177 3178 3177 3179 3180 3180 3182 3183 3182 3180 3181 3182 3182 3182 3183 3185 3186 3189 3191 3194 3194 3195 3198 3190 3194 3194 3194 3192 3193 3194 3193 3193 3188 3195 3194 3193 3191
3171 3173 3174 3175 3175 3176 3177 3177 3177 3177 3177 3179 3180 3180 3182 3183 3186 3182 3182 3183 3183 3183 3184 3185 3188 3191 3192 3194 3194 3194 3193 3194 3195 3195 3195 3193 3193 3193 3194 3191 3189 3194 3192 3192 3191
3170 3171 3172 3173 3174 3176 3176 3176 3176 3177 3177 3179 3179 3180 3182 3184 3182 3181 3182 3183 3183 3184 3184 3188 3191 3193 3193 3194 3194 3194 3194 3195 3195 3194 3194 3194 3193 3193 3195 3192 3194 3192 3190 3191 3191
3168 3169 3171 3172 3173 3175 3175 3176 3176 3176 3177 3178 3179 3179 3181 3183 3180 3182 3182 3183 3184 3184 3187 3188 3193 3192 3192 3193 3193 3194 3194 3194 3194 3193 3193 3193 3191 3193 3192 3194 3192 3191 3190 3190 3191
3165 3167 3169 3170 3171 3172 3174 3174 3175 3176 3176 3177 3178 3179 3180 3181 3180 3180 3182 3183 3184 3185 3189 3188 3188 3191 3194 3194 3193 3193 3194 3192 3191 3191 3193 3191 3192 3192 3192 3191 3191 3192 3192 3192 3192
3162 3164 3166 3168 3169 3170 3172 3173 3174 3175 3176 3177 3176 3178 3178 3178 3178 3179 3181 3183 3184 3185 3186 3187 3188 3189 3191 3192 3193 3193 3193 3189 3186 3188 3190 3191 3195 3191 3191 3191 3192 3192 3193 3193 3192
3159 3161 3163 3165 3166 3168 3170 3170 3173 3174 3174 3175 3176 3177 3177 3177 3177 3178 3180 3182 3183 3185 3186 3187 3188 3189 3192 3192 3191 3188 3187 3185 3185 3188 3189 3190 3190 3188 3189 3191 3191 3191 3193 3193 3192
3156 3158 3159 3161 3163 3165 3168 3169 3171 3172 3173 3174 3176 3178 3176 3177 3176 3177 3179 3181 3183 3184 3186 3187 3188 3189 3191 3191 3185 3184 3183 3182 3184 3188 3186 3189 3188 3188 3188 3189 3189 3188 3190 3192 3192
3153 3155 3156 3158 3160 3163 3166 3169 3172 3172 3170 3173 3175 3175 3176 3175 3175 3177 3178 3180 3182 3183 3186 3188 3190 3188 3187 3187 3185 3185 3185 3182 3183 3185 3187 3188 3187 3187 3187 3186 3189 3186 3187 3189 3190
3150 3152 3154 3156 3158 3160 3163 3166 3165 3168 3168 3168 3171 3173 3174 3173 3175 3175 3177 3181 3181 3183 3186 3189 3186 3185 3184 3184 3186 3188 3187 3186 3185 3185 3186 3186 3185 3184 3185 3184 3187 3185 3184 3186 3188
3146 3148 3151 3153 3155 3158 3160 3161 3165 3165 3165 3166 3166 3168 3171 3172 3173 3175 3176 3178 3182 3183 3185 3184 3185 3183 3184 3186 3187 3187 3187 3185 3184 3184 3184 3182 3181 3177 3179 3179 3181 3184 3182 3183 3186
3142 3144 3147 3150 3155 3155 3157 3159 3162 3164 3165 3164 3164 3164 3168 3170 3172 3176 3174 3179 3180 3182 3183 3183 3183 3183 3184 3185 3186 3186 3182 3184 3185 3185 3180 3178 3176 3172 3174 3176 3177 3179 3181 3181 3182
3138 3141 3144 3147 3150 3152 3153 3157 3161 3164 3163 3156 3159 3163 3164 3167 3171 3172 3173 3176 3179 3180 3182 3181 3181 3182 3183 3183 3184 3184 3184 3184 3184 3182 3180 3176 3173 3170 3170 3173 3173 3177 3176 3180 3179
3135 3137 3140 3144 3147 3150 3153 3155 3159 3165 3157 3155 3156 3158 3163 3164 3168 3170 3171 3174 3178 3178 3178 3177 3179 3180 3181 3182 3183 3183 3183 3183 3181 3179 3174 3173 3172 3168 3166 3169 3172 3175 3174 3177 3178
3131 3134 3137 3140 3143 3146 3150 3154 3160 3155 3153 3151 3154 3156 3158 3160 3165 3168 3169 3171 3174 3176 3176 3176 3177 3178 3179 3181 3181 3182 3182 3179 3175 3170 3165 3168 3175 3170 3167 3167 3171 3172 3172 3175 3177
3127 3130 3133 3137 3140 3145 3148 3153 3153 3148 3147 3149 3150 3152 3154 3158 3161 3164 3167 3168 3170 3172 3171 3172 3172 3173 3176 3178 3179 3179 3180 3178 3175 3167 3168 3173 3171 3166 3165 3164 3166 3170 3170 3173 3176
3124 3127 3130 3134 3137 3141 3146 3149 3147 3144 3147 3146 3149 3149 3151 3154 3158 3161 3163 3165 3167 3169 3171 3166 3165 3165 3172 3175 3178 3177 3177 3177 3174 3170 3166 3162 3163 3166 3168 3167 3167 3168 3169 3173 3174
3121 3124 3127 3130 3134 3138 3142 3142 3143 3146 3145 3145 3147 3149 3148 3150 3153 3156 3159 3162 3163 3166 3169 3168 3168 3168 3170 3173 3174 3175 3176 3175 3171 3169 3165 3159 3161 3160 3171 3161 3166 3167 3167 3171 3172
3120 3123 3124 3127 3131 3134 3134 3136 3140 3144 3144 3147 3146 3146 3146 3147 3149 3152 3155 3158 3159 3162 3165 3167 3169 3167 3167 3170 3171 3172 3171 3172 3171 3167 3162 3159 3160 3159 3161 3147 3163 3166 3167 3170 3170
3119 3123 3124 3125 3129 3129 3131 3134 3140 3142 3141 3144 3145 3144 3144 3145 3145 3150 3152 3154 3156 3159 3161 3165 3167 3167 3165 3166 3167 3168 3167 3167 3166 3164 3162 3160 3159 3160 3158 3162 3163 3161 3166 3168 3170
3117 3123 3121 3122 3125 3128 3131 3134 3137 3139 3141 3142 3145 3145 3146 3144 3147 3148 3150 3150 3153 3157 3158 3163 3164 3164 3165 3166 3164 3163 3166 3167 3165 3164 3161 3162 3161 3159 3168 3165 3165 3163 3169 3167 3167
3117 3121 3118 3119 3121 3125 3128 3131 3134 3135 3138 3141 3143 3145 3146 3146 3148 3148 3149 3150 3153 3155 3157 3160 3161 3162 3160 3161 3162 3163 3163 3163 3162 3160 3158 3157 3156 3162 3160 3164 3160 3167 3170 3168 3164
3115 3119 3117 3120 3120 3121 3124 3127 3130 3134 3136 3139 3140 3142 3144 3146 3148 3147 3149 3152 3152 3153 3156 3159 3160 3161 3161 3160 3160 3160 3158 3157 3157 3157 3157 3155 3154 3154 3158 3159 3167 3162 3170 3169 3162
3112 3113 3114 3118 3118 3120 3123 3124 3126 3130 3134 3136 3138 3140 3143 3144 3145 3147 3149 3150 3149 3152 3153 3156 3158 3160 3159 3158 3157 3155 3154 3154 3154 3153 3151 3150 3150 3153 3152 3159 3166 3158 3167 3166 3160
3108 3110 3112 3115 3117 3119 3120 3123 3126 3126 3131 3133 3135 3138 3140 3141 3142 3140 3141 3145 3145 3149 3152 3154 3157 3158 3156 3155 3154 3153 3151 3150 3151 3150 3150 3147 3144 3143 3153 3145 3156 3165 3163 3160 3158
Wind_Speed
5 4 3 2 2 1 1 1 1 1 1 1 2 2 1 2 2 3 4 4 6 5 6 6 7 6 5 4 7 8 5 19 7 17 13 8 9 6 5 10 6 6 6 6 7
7 5 5 4 4 3 2 2 2 3 3 2 1 1 1 1 1 2 0 2 3 2 5 7 4 5 5 4 4 8 7 9 12 7 6 5 3 4 7 6 6 3 3 8 6
9 7 7 6 6 5 4 3 3 4 4 5 4 3 2 1 2 1 1 2 1 2 4 8 10 3 6 4 6 7 15 2 5 5 4 6 4 4 4 5 6 11 7 8 8
11 10 9 8 7 6 5 5 4 5 5 6 6 6 5 7 1 6 4 1 1 3 6 10 7 2 3 4 3 6 4 2 3 3 4 6 3 5 6 8 10 8 7 7 8
14 13 12 10 10 9 8 7 6 6 5 6 6 7 8 6 11 5 5 3 2 3 8 3 2 2 5 5 4 3 1 2 3 4 5 6 6 3 2 2 3 6 5 5 4
16 15 15 13 12 11 10 9 8 7 6 6 6 6 8 4 15 11 8 6 1 3 1 6 2 10 5 5 7 3 6 6 6 5 6 5 8 3 5 4 5 7 8 6 8
17 17 16 15 14 12 12 11 10 9 8 8 7 7 8 9 10 11 10 9 5 3 1 6 5 6 4 2 8 7 7 9 11 6 5 6 9 1 1 2 6 7 10 10 12
18 17 17 16 16 14 14 12 12 10 9 9 8 8 7 10 10 7 10 8 9 6 5 4 4 9 7 6 7 9 10 14 14 10 3 4 9 2 2 3 6 6 9 12 15
18 18 18 18 17 15 15 13 13 11 10 10 10 10 7 8 10 8 8 6 7 8 7 5 4 5 5 9 10 13 14 14 2 3 5 5 6 1 4 3 7 7 9 11 15
16 17 18 18 18 17 16 14 13 12 11 9 9 7 11 6 10 8 8 9 7 6 6 6 5 6 9 12 18 13 13 10 17 5 0 5 9 4 2 2 7 8 8 11 13
17 16 16 17 17 17 16 12 9 10 15 11 6 9 4 9 10 9 10 8 8 6 7 7 8 12 10 12 7 7 10 10 7 5 7 10 11 8 7 5 6 10 13 11 11
18 17 16 16 16 15 14 9 15 15 14 14 17 12 14 10 6 10 12 11 10 9 8 9 11 11 8 5 6 7 9 10 10 8 8 11 12 12 10 4 5 10 12 8 10
20 18 17 16 16 14 14 17 13 13 18 16 17 19 16 15 11 12 15 13 9 10 13 14 2 4 4 6 8 10 11 11 7 8 12 17 17 22 12 11 7 7 10 7 15
21 19 18 17 16 15 12 15 11 9 8 15 18 18 19 12 15 11 16 15 11 13 11 13 12 6 9 9 9 11 4 5 8 11 18 3 15 10 15 11 11 8 10 8 17
19 19 18 17 16 13 20 12 9 7 6 11 17 10 15 21 2 18 18 17 14 11 11 14 12 9 10 9 7 10 5 8 10 13 16 17 14 17 11 9 11 7 10 10 16
18 19 19 18 17 18 12 13 12 7 12 11 14 17 19 21 14 11 19 18 12 12 13 16 6 10 11 10 10 9 8 10 14 16 20 20 18 8 10 8 1 6 7 13 13
18 18 19 18 19 20 16 15 8 13 17 15 15 15 22 20 21 17 21 21 19 15 16 14 15 10 10 10 9 8 10 15 14 16 9 5 14 17 4 11 4 4 8 14 15
16 18 19 19 20 16 18 16 13 13 22 12 11 15 22 22 25 20 20 22 23 18 15 15 17 21 14 14 11 12 10 13 14 14 4 13 9 24 10 5 4 9 10 14 16
15 16 17 19 18 20 22 18 20 16 14 15 15 12 20 23 19 25 22 23 22 21 19 14 14 12 14 11 11 12 15 15 19 22 23 25 12 11 4 7 9 10 13 15 17
12 14 14 18 19 22 24 24 20 10 7 7 13 15 18 23 24 27 21 22 21 22 20 14 8 10 10 10 12 13 13 14 15 13 14 17 4 10 14 21 12 12 15 17 17
8 6 16 15 19 23 30 26 20 9 12 6 11 13 19 20 21 21 20 20 20 21 19 19 9 10 11 10 10 13 11 14 19 22 16 13 5 16 10 11 14 12 14 15 17
9 6 10 14 21 24 25 22 16 12 10 13 8 11 7 12 21 21 16 19 18 18 22 18 15 17 16 12 11 13 17 12 14 18 21 24 18 2 6 11 8 11 13 14 15
15 6 15 13 15 18 17 19 19 18 12 9 12 10 10 3 5 11 13 8 9 13 7 13 17 18 17 16 17 16 16 18 19 20 23 9 7 10 13 5 4 10 13 17 18
11 4 9 18 22 16 14 22 22 15 12 16 12 12 12 14 8 7 9 4 13 12 15 12 12 15 20 5 5 15 14 16 19 20 22 20 9 21 6 8 14 8 16 15 19
11 3 5 6 18 13 11 11 21 16 16 10 16 12 13 12 16 14 11 10 10 16 17 12 13 14 18 20 19 19 15 17 15 20 22 23 8 1 7 13 12 10 18 16 15
3 6 14 7 7 13 18 14 13 19 15 17 15 12 14 14 12 12 14 14 11 10 14 14 17 15 21 21 21 24 23 19 22 21 19 21 25 19 11 9 5 10 14 10 10
12 15 9 3 6 9 12 14 14 12 16 11 12 16 13 16 16 12 6 13 6 8 11 15 13 14 20 16 18 22 21 20 21 20 22 24 24 9 5 14 12 10 10 5 8
Wind_Direction
214 209 207 199 196 189 214 162 198 165 120 98 102 96 122 171 176 206 228 234 237 239 224 207 183 177 208 317 332 303 293 316 106 75 90 68 96 77 96 86 74 76 107 2 24
227 223 223 223 212 219 218 211 228 220 213 210 184 152 147 29 316 220 300 259 251 208 191 165 148 174 262 324 34 45 101 33 58 75 66 76 52 37 145 101 94 99 11 6 6
229 234 236 235 232 223 225 229 224 226 225 232 222 208 191 50 355 204 326 300 277 161 169 166 166 229 274 245 228 29 119 116 88 91 39 16 51 1 13 33 63 167 14 3 354
234 237 240 243 246 239 235 232 236 231 223 231 228 222 215 128 43 272 285 314 32 144 164 137 150 225 269 211 208 185 87 51 100 31 357 351 351 356 23 85 81 184 340 351 341
240 242 246 247 246 246 241 236 234 235 232 231 225 224 220 194 262 276 265 281 40 134 135 122 224 215 255 249 222 258 175 247 314 318 330 338 323 313 285 40 109 226 285 318 338
244 244 246 246 248 247 245 242 238 236 233 232 228 222 214 216 255 251 250 256 238 125 19 122 231 231 208 232 222 282 260 272 276 284 329 335 305 318 171 252 251 221 197 193 198
245 245 245 247 248 246 249 245 242 243 233 232 230 228 220 240 256 244 241 238 244 209 272 246 223 165 335 259 259 276 278 280 259 261 300 317 350 11 354 245 213 194 183 207 210
245 246 246 245 246 248 247 247 253 248 242 236 228 230 203 250 244 241 229 230 231 228 215 217 202 204 252 245 275 259 270 269 274 191 249 294 232 94 3 173 212 212 211 205 213
248 248 247 247 246 248 251 249 250 253 247 239 231 229 238 247 244 236 222 212 236 231 232 227 222 208 264 257 258 235 254 256 113 206 263 293 334 125 87 216 216 201 209 206 204
247 249 249 248 249 249 252 252 256 260 253 242 240 240 260 280 248 229 222 212 218 221 225 232 239 254 239 232 252 316 238 249 164 251 21 274 273 280 276 292 235 237 207 200 202
244 244 247 248 247 249 251 259 271 286 249 213 272 202 270 207 227 216 221 210 211 217 227 241 230 230 234 241 299 307 315 324 320 288 272 280 285 288 255 308 239 228 265 206 207
242 239 239 243 245 246 246 235 251 241 256 217 223 228 224 227 231 223 211 203 207 214 219 220 234 232 239 272 306 289 281 282 276 261 267 276 274 273 263 235 203 237 257 205 210
240 239 235 234 238 237 237 238 255 252 262 244 241 231 229 234 221 227 210 194 210 216 215 227 210 233 258 271 268 266 262 265 299 296 276 266 271 265 238 202 212 195 234 217 202
239 237 235 231 230 232 229 239 234 247 271 255 213 229 214 219 230 210 222 195 206 223 223 236 241 258 248 242 242 265 266 240 276 279 282 295 277 246 186 218 196 194 192 204 212
239 236 233 229 225 209 221 220 215 196 265 230 199 215 203 204 238 203 211 193 216 221 220 233 237 245 229 229 242 245 281 276 271 275 278 274 264 117 227 206 174 192 172 190 216
239 233 231 226 219 222 215 203 186 195 233 179 194 204 191 208 200 209 202 195 218 224 232 238 251 233 232 233 240 242 281 280 273 267 264 268 253 211 139 199 312 165 176 179 213
239 232 228 222 213 211 196 183 194 225 225 195 204 208 201 207 199 198 199 204 207 212 225 231 234 227 218 227 234 235 261 276 262 242 270 81 326 281 85 149 157 140 181 177 171
238 232 227 221 220 200 193 181 224 223 228 223 210 209 206 202 207 208 209 213 214 219 236 214 221 222 219 223 238 231 249 272 301 296 115 232 233 246 189 181 159 156 177 172 177
236 231 227 220 212 201 190 203 211 224 237 226 209 213 209 210 211 210 216 219 220 218 233 268 235 178 204 228 235 247 254 267 285 278 277 280 280 115 125 170 157 152 169 172 191
230 225 221 215 208 201 196 211 216 252 258 185 213 217 224 213 202 207 215 223 225 221 223 240 253 192 211 228 234 245 260 280 252 261 269 274 82 132 248 298 150 157 167 176 205
214 180 226 213 204 202 207 216 217 261 246 225 240 271 225 214 213 217 218 224 223 219 220 230 245 253 191 214 251 222 250 247 267 280 301 291 225 307 223 262 165 158 166 184 201
191 161 240 221 205 209 220 213 224 242 260 223 244 255 240 253 215 218 232 233 212 212 210 223 235 241 245 245 249 248 267 281 256 265 259 279 334 287 276 163 167 151 179 189 191
146 249 258 223 206 217 234 230 228 244 233 236 232 237 254 251 198 218 232 166 140 193 217 215 230 252 251 262 255 239 254 264 267 271 276 288 280 247 259 184 185 168 191 196 186
183 206 291 216 200 233 235 226 219 231 235 228 233 235 226 233 221 228 218 210 221 190 215 219 247 230 257 265 355 287 267 260 259 263 270 262 266 212 223 329 183 166 209 210 197
148 206 190 230 219 227 228 224 223 228 223 219 221 225 218 230 225 231 236 228 249 230 225 227 246 258 262 271 273 250 242 246 239 254 254 270 259 129 243 244 236 203 211 211 213
207 200 205 228 226 218 221 234 218 220 226 225 223 224 226 231 225 229 236 247 219 235 238 219 245 255 265 265 265 262 259 260 266 274 277 264 272 256 322 286 247 186 222 234 246
230 203 188 230 246 217 213 232 231 219 221 217 221 231 230 234 223 230 200 213 198 188 214 215 235 243 261 267 266 267 257 255 260 262 263 280 278 181 282 140 281 198 240 272 265